Regional Weather Roundup
Issued by NWS

Home | Current Version | Previous Version | Graphics & Text | Print | Product List | Glossary Off
Versions: 1 2 3 4 5 6 7 8 9 10 11 12 13 14 15 16 17 18 19 20 21 22 23 24 25 26 27 28 29 30 31 32 33 34 35 36 37 38 39 40 41 42 43 44 45 46 47 48 49 50

000
ASUS43 KFSD 222302
RWRSD

WEATHER ROUNDUP FOR SOUTH DAKOTA
NATIONAL WEATHER SERVICE SIOUX FALLS SD
600 PM CDT SUN APR 22 2018

NOTE: "FAIR" INDICATES FEW OR NO CLOUDS BELOW 12,000 FEET WITH NO
SIGNIFICANT WEATHER AND/OR OBSTRUCTIONS TO VISIBILITY.


SDZ001>005-009-010-012>017-230000-
NORTHWEST AND NORTH CENTRAL SOUTH DAKOTA

CITY           SKY/WX    TMP DP  RH WIND       PRES   REMARKS
BUFFALO          N/A     68  32  26 NE8       30.00S
FAITH            N/A     65  38  36 VRB7      30.07S
MOBRIDGE       SUNNY     65  39  38 S13       30.08F
$$

SDZ012>016-024>037-041>051-057-063-072>074-230000-
SOUTHWEST AND SOUTH CENTRAL SOUTH DAKOTA

CITY           SKY/WX    TMP DP  RH WIND       PRES   REMARKS
RAPID CTY ARPT SUNNY     65  38  36 S8        30.06F
PIERRE         SUNNY     63  39  41 S15       30.11F
CUSTER         MOSUNNY   57  33  40 E9        30.11S
ELLSWORTH AFB  SUNNY    N/A N/A N/A E5        30.07S
PHILIP         SUNNY     65  39  38 S12       30.07F
PINE RIDGE     MOSUNNY   64  41  42 S5        30.07F
SPEARFISH      FAIR      64  41  42 E9G16     30.07F
WINNER         FAIR      62  38  40 S13       30.14F
$$

SDZ004>011-016>023-039-040-230000-
NORTHEAST SOUTH DAKOTA

CITY           SKY/WX    TMP DP  RH WIND       PRES   REMARKS
ABERDEEN       SUNNY     64  33  31 S17G26    30.17S
WATERTOWN      SUNNY     58  39  49 S14       30.19F
BROOKINGS      SUNNY     57  37  47 S13G21    30.21F
SISSETON         N/A     60  38  43 S15       30.19S
$$

SDZ017-020-022-023-036>040-048>070-230000-
SOUTHEAST SOUTH DAKOTA

CITY           SKY/WX    TMP DP  RH WIND       PRES   REMARKS
SIOUX FALLS    MOSUNNY   61  37  41 SE13      30.19F
HURON          SUNNY     62  37  39 S14       30.17F
CHAMBERLAIN    SUNNY     64  36  36 S8G16     30.15F
MITCHELL       SUNNY     62  39  42 S9        30.18S
YANKTON        SUNNY     64  33  31 E6        30.17F
$$

ABBREVIATIONS USED IN REMARKS
   TC - TEMPERATURE IN CELSIUS
  WCI - WIND CHILL INDEX
   HX - HEAT INDEX
  VSB - VISIBILITY





USA.gov is the U.S. government's official web portal to all federal, state and local government web resources and services.